Total_Precipitation_Accumulation
0.25 0.25 0.19 0.15 0.10 0.15 0.26 0.35 0.26 0.21 0.23 0.19 0.14 0.11 0.11 0.13 0.13 0.12 0.10 0.15 0.14 0.19 0.23 0.24 0.22 0.19 0.19 0.18 0.18 0.17 0.16 0.16 0.15 0.12 0.11 0.11 0.09 0.08 0.13 0.17 0.19 0.20 0.16
0.45 0.40 0.34 0.31 0.22 0.31 0.43 0.49 0.42 0.39 0.28 0.30 0.20 0.16 0.14 0.16 0.15 0.16 0.13 0.12 0.12 0.09 0.11 0.16 0.20 0.21 0.21 0.22 0.19 0.14 0.11 0.11 0.11 0.09 0.09 0.09 0.09 0.07 0.10 0.16 0.19 0.16 0.10
0.89 0.85 0.73 0.54 0.51 0.64 0.66 0.56 0.48 0.59 0.42 0.39 0.31 0.37 0.35 0.32 0.21 0.16 0.15 0.11 0.07 0.07 0.07 0.10 0.18 0.25 0.29 0.31 0.27 0.22 0.16 0.12 0.07 0.05 0.07 0.07 0.06 0.06 0.06 0.08 0.12 0.11 0.08
1.03 1.12 0.89 0.66 0.78 0.93 0.89 0.78 0.74 0.79 0.67 0.66 0.61 0.55 0.45 0.33 0.17 0.11 0.08 0.05 0.04 0.02 0.04 0.14 0.19 0.23 0.34 0.38 0.38 0.38 0.31 0.23 0.12 0.05 0.04 0.05 0.05 0.04 0.03 0.03 0.05 0.07 0.06
0.60 0.66 0.43 0.37 0.58 0.68 0.60 0.59 0.73 0.77 0.71 0.78 0.75 0.51 0.33 0.19 0.12 0.08 0.06 0.03 0.04 0.04 0.04 0.14 0.15 0.21 0.33 0.40 0.44 0.46 0.44 0.36 0.27 0.13 0.07 0.04 0.04 0.03 0.02 0.01 0.03 0.06 0.07
0.26 0.34 0.20 0.20 0.45 0.52 0.46 0.56 0.60 0.57 0.48 0.53 0.49 0.24 0.17 0.12 0.10 0.08 0.05 0.04 0.05 0.05 0.04 0.05 0.08 0.14 0.26 0.36 0.41 0.43 0.43 0.38 0.27 0.18 0.12 0.08 0.07 0.04 0.02 0.02 0.04 0.05 0.05
0.18 0.30 0.21 0.25 0.40 0.42 0.36 0.39 0.42 0.35 0.23 0.39 0.42 0.18 0.07 0.04 0.06 0.05 0.04 0.03 0.03 0.03 0.04 0.05 0.08 0.10 0.09 0.16 0.30 0.36 0.41 0.42 0.31 0.20 0.16 0.14 0.11 0.07 0.06 0.06 0.05 0.03 0.03
0.13 0.24 0.20 0.15 0.21 0.23 0.18 0.19 0.29 0.30 0.25 0.38 0.43 0.31 0.12 0.06 0.04 0.03 0.03 0.03 0.02 0.03 0.04 0.05 0.10 0.15 0.17 0.20 0.26 0.22 0.31 0.36 0.37 0.35 0.31 0.24 0.16 0.11 0.11 0.14 0.11 0.06 0.04
0.04 0.07 0.09 0.11 0.16 0.23 0.22 0.23 0.27 0.29 0.23 0.23 0.31 0.35 0.21 0.08 0.05 0.06 0.08 0.07 0.08 0.11 0.14 0.14 0.16 0.18 0.22 0.26 0.28 0.23 0.22 0.22 0.41 0.52 0.43 0.28 0.14 0.10 0.14 0.22 0.22 0.14 0.12
0.03 0.04 0.05 0.05 0.10 0.17 0.18 0.15 0.17 0.20 0.20 0.15 0.18 0.23 0.25 0.21 0.17 0.09 0.09 0.13 0.15 0.18 0.22 0.22 0.22 0.25 0.26 0.29 0.36 0.39 0.31 0.25 0.30 0.33 0.34 0.35 0.27 0.19 0.16 0.24 0.38 0.37 0.26
0.03 0.04 0.04 0.04 0.06 0.09 0.10 0.09 0.10 0.12 0.13 0.11 0.11 0.16 0.27 0.33 0.34 0.25 0.15 0.14 0.16 0.16 0.21 0.22 0.24 0.29 0.29 0.36 0.45 0.46 0.48 0.39 0.25 0.17 0.27 0.39 0.39 0.34 0.28 0.32 0.49 0.60 0.60
0.04 0.06 0.07 0.08 0.09 0.10 0.10 0.10 0.12 0.12 0.12 0.13 0.14 0.17 0.23 0.30 0.35 0.38 0.31 0.24 0.23 0.23 0.26 0.29 0.38 0.43 0.42 0.47 0.41 0.36 0.30 0.22 0.20 0.20 0.25 0.30 0.30 0.31 0.37 0.47 0.62 0.77 0.89
0.03 0.06 0.11 0.13 0.12 0.12 0.11 0.13 0.15 0.13 0.15 0.17 0.18 0.19 0.23 0.29 0.37 0.42 0.39 0.33 0.36 0.38 0.47 0.47 0.47 0.49 0.45 0.44 0.39 0.27 0.13 0.09 0.08 0.11 0.21 0.34 0.42 0.48 0.50 0.51 0.57 0.65 0.74
0.06 0.08 0.09 0.09 0.10 0.09 0.10 0.12 0.11 0.12 0.17 0.23 0.24 0.27 0.28 0.32 0.45 0.48 0.46 0.47 0.45 0.52 0.66 0.59 0.47 0.42 0.40 0.37 0.29 0.19 0.10 0.05 0.03 0.03 0.04 0.05 0.09 0.15 0.22 0.30 0.39 0.49 0.58
0.09 0.09 0.08 0.09 0.09 0.09 0.09 0.11 0.12 0.16 0.22 0.24 0.29 0.38 0.41 0.43 0.50 0.54 0.55 0.58 0.58 0.57 0.61 0.56 0.40 0.35 0.33 0.30 0.23 0.18 0.09 0.03 0.02 0.01 0.01 0.01 0.02 0.02 0.03 0.04 0.08 0.13 0.19
0.13 0.14 0.16 0.16 0.14 0.12 0.15 0.21 0.21 0.19 0.27 0.36 0.43 0.50 0.52 0.55 0.57 0.55 0.56 0.59 0.59 0.60 0.59 0.46 0.33 0.33 0.29 0.21 0.16 0.13 0.07 0.04 0.02 0.01 0.01 0.01 0.02 0.03 0.04 0.03 0.02 0.03 0.04
0.18 0.20 0.23 0.24 0.22 0.25 0.38 0.50 0.49 0.39 0.43 0.50 0.54 0.61 0.65 0.67 0.66 0.58 0.55 0.53 0.53 0.56 0.50 0.33 0.22 0.22 0.19 0.14 0.11 0.09 0.06 0.04 0.03 0.03 0.02 0.01 0.01 0.02 0.03 0.03 0.02 0.02 0.03
0.17 0.16 0.17 0.19 0.20 0.23 0.33 0.58 0.71 0.70 0.66 0.57 0.58 0.69 0.72 0.66 0.58 0.53 0.51 0.49 0.49 0.50 0.44 0.29 0.21 0.18 0.15 0.15 0.14 0.11 0.08 0.05 0.04 0.06 0.04 0.02 0.02 0.02 0.01 0.01 0.01 0.01 0.01
0.16 0.16 0.17 0.20 0.24 0.24 0.27 0.43 0.60 0.67 0.65 0.58 0.59 0.60 0.58 0.58 0.52 0.46 0.41 0.38 0.38 0.43 0.38 0.26 0.20 0.16 0.14 0.13 0.13 0.13 0.10 0.07 0.05 0.04 0.06 0.05 0.04 0.02 0.00 0.00 0.00 0.01 0.01
0.14 0.17 0.20 0.25 0.26 0.22 0.22 0.32 0.43 0.50 0.51 0.50 0.49 0.46 0.43 0.41 0.44 0.43 0.37 0.32 0.30 0.30 0.27 0.21 0.18 0.15 0.14 0.14 0.12 0.11 0.09 0.07 0.04 0.02 0.04 0.09 0.08 0.03 0.01 0.00 0.00 0.00 0.01
0.09 0.14 0.21 0.23 0.21 0.18 0.23 0.33 0.34 0.29 0.31 0.34 0.33 0.28 0.28 0.32 0.35 0.37 0.33 0.28 0.27 0.25 0.23 0.21 0.17 0.15 0.14 0.15 0.13 0.09 0.07 0.06 0.03 0.02 0.03 0.04 0.04 0.02 0.01 0.00 0.00 0.00 0.01
0.10 0.12 0.14 0.18 0.17 0.16 0.22 0.24 0.20 0.16 0.16 0.18 0.19 0.15 0.12 0.14 0.19 0.24 0.24 0.21 0.21 0.19 0.20 0.20 0.19 0.17 0.16 0.15 0.12 0.08 0.06 0.04 0.04 0.05 0.06 0.06 0.04 0.02 0.00 0.00 0.00 0.00 0.00
0.10 0.12 0.14 0.15 0.17 0.18 0.16 0.12 0.09 0.07 0.07 0.10 0.11 0.09 0.06 0.06 0.08 0.08 0.08 0.08 0.11 0.12 0.14 0.16 0.18 0.16 0.15 0.13 0.09 0.08 0.07 0.06 0.04 0.03 0.04 0.04 0.02 0.01 0.00 0.00 0.00 0.00 0.00
0.10 0.13 0.15 0.18 0.21 0.23 0.18 0.12 0.08 0.06 0.06 0.07 0.07 0.05 0.04 0.04 0.04 0.04 0.05 0.05 0.05 0.06 0.08 0.12 0.13 0.12 0.10 0.08 0.07 0.07 0.06 0.05 0.03 0.02 0.02 0.03 0.02 0.01 0.01 0.02 0.00 0.00 0.00
0.14 0.14 0.16 0.19 0.23 0.27 0.22 0.16 0.11 0.07 0.08 0.08 0.06 0.04 0.04 0.03 0.02 0.02 0.03 0.04 0.04 0.03 0.04 0.05 0.06 0.06 0.05 0.04 0.03 0.02 0.01 0.01 0.01 0.01 0.01 0.02 0.02 0.03 0.03 0.03 0.02 0.01 0.00
0.19 0.18 0.18 0.19 0.24 0.32 0.29 0.21 0.14 0.09 0.12 0.10 0.08 0.04 0.02 0.02 0.01 0.01 0.03 0.02 0.02 0.01 0.01 0.01 0.01 0.01 0.01 0.01 0.01 0.01 0.01 0.01 0.00 0.01 0.00 0.01 0.01 0.02 0.05 0.03 0.02 0.02 0.01